Time,TemperatureF,DewpointF,PressureIn,WindDirection,WindDirectionDegrees,WindSpeedMPH,WindSpeedGustMPH,Humidity,HourlyPrecipIn,Conditions,Clouds,dailyrainin,SoftwareType,DateUTC
2013-07-03 00:13:00,73.3,70.0,30.20,West,267,0.0,0.0,89,0.07,,,0.00,weatherlink.com 1.10,2013-07-03 04:13:00,
2013-07-03 00:28:00,73.3,70.0,30.20,North,360,0.0,0.0,89,0.04,,,0.00,weatherlink.com 1.10,2013-07-03 04:28:00,
2013-07-03 00:43:00,73.3,70.0,30.20,West,267,0.0,0.0,89,0.00,,,0.00,weatherlink.com 1.10,2013-07-03 04:43:00,
2013-07-03 00:58:00,73.3,70.0,30.20,West,267,0.0,0.0,89,0.00,,,0.00,weatherlink.com 1.10,2013-07-03 04:58:00,
2013-07-03 01:13:00,73.3,70.0,30.20,West,267,0.0,0.0,89,0.00,,,0.00,weatherlink.com 1.10,2013-07-03 05:13:00,
2013-07-03 01:28:00,73.2,70.0,30.19,West,267,0.0,0.0,89,0.00,,,0.00,weatherlink.com 1.10,2013-07-03 05:28:00,
2013-07-03 01:43:00,73.3,70.0,30.19,West,266,0.0,0.0,89,0.00,,,0.00,weatherlink.com 1.10,2013-07-03 05:43:00,
2013-07-03 01:58:00,73.3,70.0,30.19,West,267,0.0,0.0,89,0.00,,,0.00,weatherlink.com 1.10,2013-07-03 05:58:00,
2013-07-03 02:13:00,73.4,70.0,30.19,West,267,0.0,0.0,89,0.00,,,0.00,weatherlink.com 1.10,2013-07-03 06:13:00,
2013-07-03 02:28:00,73.5,70.0,30.18,South,179,0.0,0.0,89,0.00,,,0.00,weatherlink.com 1.10,2013-07-03 06:28:00,
2013-07-03 02:43:00,73.6,70.0,30.18,South,179,0.0,0.0,89,0.00,,,0.00,weatherlink.com 1.10,2013-07-03 06:43:00,
2013-07-03 02:58:00,73.6,70.0,30.17,South,179,0.0,0.0,89,0.00,,,0.00,weatherlink.com 1.10,2013-07-03 06:58:00,
2013-07-03 03:13:00,73.7,70.0,30.17,South,179,0.0,0.0,89,0.00,,,0.00,weatherlink.com 1.10,2013-07-03 07:13:00,
2013-07-03 03:58:00,73.8,70.0,30.18,South,179,0.0,0.0,89,0.00,,,0.00,weatherlink.com 1.10,2013-07-03 07:58:00,
2013-07-03 04:13:00,73.9,71.0,30.18,South,179,0.0,0.0,89,0.00,,,0.00,weatherlink.com 1.10,2013-07-03 08:13:00,
2013-07-03 04:28:00,73.9,71.0,30.18,South,178,0.0,0.0,89,0.00,,,0.00,weatherlink.com 1.10,2013-07-03 08:28:00,
2013-07-03 04:43:00,73.9,71.0,30.19,South,179,0.0,0.0,89,0.00,,,0.00,weatherlink.com 1.10,2013-07-03 08:43:00,
2013-07-03 04:58:00,73.8,70.0,30.18,South,179,0.0,0.0,89,0.00,,,0.00,weatherlink.com 1.10,2013-07-03 08:58:00,
2013-07-03 05:28:00,73.7,70.0,30.19,South,179,0.0,0.0,89,0.00,,,0.00,weatherlink.com 1.10,2013-07-03 09:28:00,
2013-07-03 05:43:00,73.7,70.0,30.19,South,179,0.0,0.0,89,0.00,,,0.00,weatherlink.com 1.10,2013-07-03 09:43:00,
2013-07-03 05:58:00,73.7,70.0,30.20,South,178,0.0,0.0,89,0.00,,,0.00,weatherlink.com 1.10,2013-07-03 09:58:00,
2013-07-03 06:13:00,73.7,70.0,30.20,South,180,0.0,0.0,89,0.00,,,0.00,weatherlink.com 1.10,2013-07-03 10:13:00,
2013-07-03 06:28:00,73.7,70.0,30.22,South,180,0.0,0.0,89,0.00,,,0.00,weatherlink.com 1.10,2013-07-03 10:28:00,
2013-07-03 06:44:00,73.7,70.0,30.22,South,180,0.0,0.0,89,0.00,,,0.00,weatherlink.com 1.10,2013-07-03 10:44:00,
2013-07-03 06:59:00,73.8,70.0,30.23,South,180,0.0,0.0,89,0.00,,,0.00,weatherlink.com 1.10,2013-07-03 10:59:00,
2013-07-03 07:14:00,74.0,71.0,30.22,South,180,0.0,0.0,89,0.00,,,0.00,weatherlink.com 1.10,2013-07-03 11:14:00,
2013-07-03 07:29:00,74.1,71.0,30.23,South,180,0.0,0.0,89,0.00,,,0.00,weatherlink.com 1.10,2013-07-03 11:29:00,
2013-07-03 07:44:00,74.3,71.0,30.24,South,180,0.0,0.0,89,0.00,,,0.00,weatherlink.com 1.10,2013-07-03 11:44:00,
2013-07-03 07:59:00,74.5,71.0,30.24,South,180,0.0,0.0,89,0.00,,,0.00,weatherlink.com 1.10,2013-07-03 11:59:00,
2013-07-03 08:14:00,74.8,71.0,30.25,South,180,0.0,0.0,89,0.00,,,0.00,weatherlink.com 1.10,2013-07-03 12:14:00,
2013-07-03 08:29:00,75.1,72.0,30.25,South,180,0.0,0.0,90,0.00,,,0.00,weatherlink.com 1.10,2013-07-03 12:29:00,
2013-07-03 08:44:00,75.1,72.0,30.25,South,180,0.0,0.0,89,0.00,,,0.00,weatherlink.com 1.10,2013-07-03 12:44:00,
2013-07-03 08:59:00,75.4,72.0,30.25,South,179,0.0,0.0,89,0.00,,,0.00,weatherlink.com 1.10,2013-07-03 12:59:00,
2013-07-03 09:29:00,75.8,72.0,30.26,South,180,0.0,0.0,89,0.00,,,0.00,weatherlink.com 1.10,2013-07-03 13:29:00,
2013-07-03 09:44:00,76.0,73.0,30.25,South,180,0.0,0.0,89,0.00,,,0.00,weatherlink.com 1.10,2013-07-03 13:44:00,
2013-07-03 10:29:00,78.2,74.0,30.24,SSE,159,0.0,0.0,86,0.00,,,0.00,weatherlink.com 1.10,2013-07-03 14:29:00,
2013-07-03 10:59:00,79.7,75.0,30.25,ESE,110,0.0,0.0,84,0.00,,,0.00,weatherlink.com 1.10,2013-07-03 14:59:00,
2013-07-03 11:14:00,79.5,74.0,30.25,SE,139,0.0,0.0,82,0.00,,,0.00,weatherlink.com 1.10,2013-07-03 15:14:00,
2013-07-03 11:44:00,79.5,74.0,30.26,SE,139,0.0,0.0,84,0.00,,,0.00,weatherlink.com 1.10,2013-07-03 15:44:00,
2013-07-03 11:59:00,79.9,74.0,30.25,SE,134,0.0,0.0,82,0.00,,,0.00,weatherlink.com 1.10,2013-07-03 15:59:00,
2013-07-03 12:29:00,80.1,74.0,30.24,SE,133,0.0,0.0,82,0.00,,,0.00,weatherlink.com 1.10,2013-07-03 16:29:00,
2013-07-03 12:44:00,80.6,74.0,30.24,SE,134,0.0,0.0,81,0.00,,,0.00,weatherlink.com 1.10,2013-07-03 16:44:00,
2013-07-03 12:59:00,80.5,74.0,30.24,SE,134,0.0,0.0,81,0.00,,,0.00,weatherlink.com 1.10,2013-07-03 16:59:00,
2013-07-03 13:14:00,80.7,74.0,30.24,SE,133,0.0,0.0,81,0.00,,,0.00,weatherlink.com 1.10,2013-07-03 17:14:00,
2013-07-03 13:29:00,81.7,75.0,30.24,SE,134,0.0,0.0,79,0.00,,,0.00,weatherlink.com 1.10,2013-07-03 17:29:00,
2013-07-03 14:14:00,84.3,75.0,30.22,East,95,0.0,0.0,73,0.00,,,0.00,weatherlink.com 1.10,2013-07-03 18:14:00,
2013-07-03 14:29:00,84.8,75.0,30.23,North,355,0.0,0.0,72,0.00,,,0.00,weatherlink.com 1.10,2013-07-03 18:29:00,
2013-07-03 14:44:00,84.5,74.0,30.23,SE,146,0.0,0.0,71,0.00,,,0.00,weatherlink.com 1.10,2013-07-03 18:44:00,
2013-07-03 14:59:00,85.0,74.0,30.21,SSE,150,0.0,0.0,70,0.00,,,0.00,weatherlink.com 1.10,2013-07-03 18:59:00,
2013-07-03 15:14:00,84.8,75.0,30.22,NNE,30,0.0,0.0,73,0.00,,,0.00,weatherlink.com 1.10,2013-07-03 19:14:00,
2013-07-03 15:29:00,84.0,75.0,30.22,NE,47,0.0,0.0,75,0.00,,,0.00,weatherlink.com 1.10,2013-07-03 19:29:00,
2013-07-03 16:00:00,82.7,75.0,30.22,NW,310,0.0,0.0,77,0.00,,,0.00,weatherlink.com 1.10,2013-07-03 20:00:00,
2013-07-03 16:15:00,80.8,74.0,30.21,SSW,192,0.0,0.0,79,0.10,,,0.10,weatherlink.com 1.10,2013-07-03 20:15:00,
2013-07-03 16:30:00,78.9,73.0,30.22,SSW,192,0.0,0.0,83,0.12,,,0.12,weatherlink.com 1.10,2013-07-03 20:30:00,
2013-07-03 16:45:00,78.1,73.0,30.22,SSW,192,0.0,0.0,84,0.12,,,0.12,weatherlink.com 1.10,2013-07-03 20:45:00,
2013-07-03 17:00:00,77.8,73.0,30.22,SSW,193,0.0,0.0,85,0.12,,,0.12,weatherlink.com 1.10,2013-07-03 21:00:00,
2013-07-03 17:15:00,77.8,73.0,30.22,SSW,192,0.0,0.0,86,0.02,,,0.12,weatherlink.com 1.10,2013-07-03 21:15:00,
2013-07-03 17:30:00,77.9,74.0,30.21,South,191,0.0,0.0,86,0.00,,,0.12,weatherlink.com 1.10,2013-07-03 21:30:00,
2013-07-03 17:45:00,77.9,73.0,30.21,SSW,192,0.0,0.0,85,0.00,,,0.12,weatherlink.com 1.10,2013-07-03 21:45:00,
2013-07-03 18:00:00,77.5,73.0,30.22,South,191,0.0,0.0,85,0.00,,,0.12,weatherlink.com 1.10,2013-07-03 22:00:00,
2013-07-03 18:15:00,77.4,73.0,30.23,SSW,192,0.0,0.0,86,0.01,,,0.13,weatherlink.com 1.10,2013-07-03 22:15:00,
2013-07-03 18:30:00,77.4,73.0,30.23,SSW,192,0.0,0.0,87,0.01,,,0.13,weatherlink.com 1.10,2013-07-03 22:30:00,
2013-07-03 18:45:00,77.7,74.0,30.23,SSW,192,0.0,0.0,87,0.01,,,0.13,weatherlink.com 1.10,2013-07-03 22:45:00,
2013-07-03 19:00:00,77.7,74.0,30.23,SSW,192,0.0,0.0,87,0.01,,,0.13,weatherlink.com 1.10,2013-07-03 23:00:00,
2013-07-03 19:15:00,77.7,73.0,30.23,SSW,192,0.0,0.0,86,0.00,,,0.13,weatherlink.com 1.10,2013-07-03 23:15:00,
2013-07-03 19:30:00,77.6,74.0,30.23,South,190,0.0,0.0,87,0.00,,,0.13,weatherlink.com 1.10,2013-07-03 23:30:00,
2013-07-03 19:45:00,77.5,73.0,30.24,South,190,0.0,0.0,86,0.00,,,0.13,weatherlink.com 1.10,2013-07-03 23:45:00,
2013-07-03 20:00:00,77.4,73.0,30.24,South,189,0.0,0.0,87,0.00,,,0.13,weatherlink.com 1.10,2013-07-04 00:00:00,
2013-07-03 20:15:00,77.1,73.0,30.24,South,190,0.0,0.0,86,0.00,,,0.13,weatherlink.com 1.10,2013-07-04 00:15:00,
2013-07-03 20:30:00,76.7,72.0,30.23,South,184,0.0,0.0,86,0.00,,,0.13,weatherlink.com 1.10,2013-07-04 00:30:00,
2013-07-03 20:45:00,76.3,72.0,30.24,South,184,0.0,0.0,87,0.00,,,0.13,weatherlink.com 1.10,2013-07-04 00:45:00,
2013-07-03 21:00:00,76.0,72.0,30.25,South,184,0.0,0.0,87,0.00,,,0.13,weatherlink.com 1.10,2013-07-04 01:00:00,
2013-07-03 21:15:00,75.8,72.0,30.25,South,184,0.0,0.0,87,0.00,,,0.13,weatherlink.com 1.10,2013-07-04 01:15:00,
2013-07-03 21:30:00,75.5,71.0,30.26,South,184,0.0,0.0,87,0.00,,,0.13,weatherlink.com 1.10,2013-07-04 01:30:00,
2013-07-03 22:00:00,75.1,71.0,30.25,South,184,0.0,0.0,87,0.00,,,0.13,weatherlink.com 1.10,2013-07-04 02:00:00,
2013-07-03 22:45:00,74.4,70.0,30.26,South,185,0.0,0.0,87,0.00,,,0.13,weatherlink.com 1.10,2013-07-04 02:45:00,
2013-07-03 23:00:00,74.1,70.0,30.25,South,184,0.0,0.0,87,0.00,,,0.13,weatherlink.com 1.10,2013-07-04 03:00:00,
2013-07-03 23:15:00,73.8,70.0,30.26,South,184,0.0,0.0,87,0.00,,,0.13,weatherlink.com 1.10,2013-07-04 03:15:00,
2013-07-03 23:30:00,73.6,70.0,30.26,South,184,0.0,0.0,87,0.00,,,0.13,weatherlink.com 1.10,2013-07-04 03:30:00,